Simultaneous Nadir Overpasses (SNOs) Predictions

Prediction of SNOs between GOES-16 and FY3D Satellite Orbit:

Table of predicted SNOs for the next 14.0 days since TLE Epoch: 12/17/2022
Index Date Time (GOES-16) GOES-16 Lat,Lon FY3D Lat,Lon Distance(km) Time Diff (sec)
1 12/17/2022 19:09:12 0.03, -75.19 -0.68, -78.27 350.98 80
2 12/18/2022 18:53:34 0.03, -75.20 0.36, -73.84 155.61 80
3 12/20/2022 07:13:19 -0.03, -75.21 0.89, -79.24 459.71 80
4 12/21/2022 06:54:59 -0.02, -75.21 -0.09, -74.80 46.85 80
5 12/23/2022 18:59:15 0.01, -75.22 -0.15, -75.80 65.93 80
6 12/24/2022 18:43:37 0.00, -75.23 0.90, -71.37 440.87 80
7 12/26/2022 07:06:02 -0.00, -75.24 0.35, -76.77 173.78 80
8 12/27/2022 06:45:03 0.00, -75.25 -0.65, -72.33 333.25 80
9 12/28/2022 19:07:38 0.00, -75.27 -0.57, -77.77 284.85 80
10 12/29/2022 18:51:58 0.00, -75.29 0.42, -73.33 222.94 80
